Вернуться в каталог

USA 364

АктивенВоенныеVLEO
NORAD 59824·PAYLOAD·🇺🇸 United States

Запущен May 22, 2024 с Vandenberg Space Force Base

Loading…

Ближайшие Пролёты (ближайшие 24 часа)

TLE

УстаревшееSource: Mike McCants

Эпоха: Aug 13, 2026, 00:28 UTC

1 59824U 24096L   26225.01982443 0.00000000  00000-0  00000-0 0    00
2 59824  70.0227 184.3052 0004000 116.1869 243.8130 14.96713183    01

Отслеживайте USA 364 в реальном времени с AllMySat

Download on the App Store